Saint Bonnet de Bellac- Haute Vienne - France
Donnes mto: mercredi, 15/08/2012
Date Horaire Temp. E. Hum. E. P.atmo. Pluie Vent Direction Direction Ensoleilleme Solaire P. de rose Temp au vent Rafales
15/08/2012 00:00 21,7 C 70 % 1009,2 hPa 0,0 mm 0,0 km/h (0 Bft) S-SO 202 0 min 0 W/m 16,0 C 21,7 C 0,0 km/h (0 Bft)
15/08/2012 00:10 21,6 C 71 % 1008,4 hPa 0,0 mm 1,8 km/h (1 Bft) E-NE 67 0 min 0 W/m 16,1 C 21,6 C 4,3 km/h (1 Bft)
15/08/2012 00:20 21,4 C 71 % 1008,3 hPa 0,0 mm 0,0 km/h (0 Bft) NE 45 0 min 0 W/m 15,9 C 21,4 C 0,0 km/h (0 Bft)
15/08/2012 00:30 21,3 C 72 % 1008,4 hPa 0,0 mm 0,7 km/h (0 Bft) E-SE 112 0 min 0 W/m 16,0 C 21,3 C 0,7 km/h (0 Bft)
15/08/2012 00:40 21,5 C 72 % 1008,3 hPa 0,0 mm 4,3 km/h (1 Bft) E-SE 112 0 min 0 W/m 16,2 C 21,5 C 4,3 km/h (1 Bft)
15/08/2012 00:50 21,8 C 72 % 1008,1 hPa 0,0 mm 2,2 km/h (1 Bft) E-NE 67 0 min 0 W/m 16,5 C 21,8 C 6,5 km/h (2 Bft)
15/08/2012 01:00 21,5 C 72 % 1007,8 hPa 0,0 mm 2,9 km/h (1 Bft) E-SE 112 0 min 0 W/m 16,2 C 21,5 C 4,3 km/h (1 Bft)
15/08/2012 01:10 21,3 C 72 % 1008,1 hPa 0,0 mm 2,5 km/h (1 Bft) SE 135 0 min 0 W/m 16,0 C 21,3 C 4,3 km/h (1 Bft)
15/08/2012 01:20 21,1 C 73 % 1007,9 hPa 0,0 mm 0,0 km/h (0 Bft) E-SE 112 0 min 0 W/m 16,1 C 21,1 C 0,0 km/h (0 Bft)
15/08/2012 01:30 21,2 C 73 % 1008,0 hPa 0,0 mm 1,8 km/h (1 Bft) SE 135 0 min 0 W/m 16,2 C 21,2 C 3,2 km/h (1 Bft)
15/08/2012 01:40 21,3 C 73 % 1007,7 hPa 0,0 mm 2,2 km/h (1 Bft) E 90 0 min 0 W/m 16,3 C 21,3 C 5,4 km/h (2 Bft)
15/08/2012 01:50 21,1 C 73 % 1007,5 hPa 0,0 mm 2,9 km/h (1 Bft) E-SE 112 0 min 0 W/m 16,1 C 21,1 C 8,3 km/h (2 Bft)
15/08/2012 02:00 20,9 C 75 % 1007,4 hPa 0,0 mm 3,2 km/h (1 Bft) E-SE 112 0 min 0 W/m 16,3 C 20,9 C 8,3 km/h (2 Bft)
15/08/2012 02:10 20,8 C 75 % 1007,3 hPa 0,0 mm 1,8 km/h (1 Bft) E-SE 112 0 min 0 W/m 16,2 C 20,8 C 2,9 km/h (1 Bft)
15/08/2012 02:20 20,7 C 76 % 1007,2 hPa 0,0 mm 5,0 km/h (1 Bft) E-NE 67 0 min 0 W/m 16,3 C 20,7 C 10,4 km/h (2 Bft)
15/08/2012 02:30 20,6 C 76 % 1006,9 hPa 0,0 mm 5,4 km/h (2 Bft) NE 45 0 min 0 W/m 16,2 C 20,6 C 5,4 km/h (2 Bft)
15/08/2012 02:40 20,4 C 77 % 1006,9 hPa 0,0 mm 2,2 km/h (1 Bft) E 90 0 min 0 W/m 16,2 C 20,4 C 2,9 km/h (1 Bft)
15/08/2012 02:50 20,2 C 78 % 1006,8 hPa 0,0 mm 5,0 km/h (1 Bft) E 90 0 min 0 W/m 16,2 C 20,2 C 8,3 km/h (2 Bft)
15/08/2012 03:02 19,9 C 78 % 1006,6 hPa 0,0 mm 5,4 km/h (2 Bft) E 90 0 min 0 W/m 15,9 C 19,9 C 8,3 km/h (2 Bft)
15/08/2012 03:10 19,8 C 78 % 1006,6 hPa 0,0 mm 5,0 km/h (1 Bft) E-NE 67 0 min 0 W/m 15,8 C 19,8 C 7,6 km/h (2 Bft)
15/08/2012 03:20 19,7 C 79 % 1006,4 hPa 0,0 mm 1,4 km/h (1 Bft) E-SE 112 0 min 0 W/m 16,0 C 19,7 C 3,6 km/h (1 Bft)
15/08/2012 03:30 19,6 C 79 % 1006,3 hPa 0,0 mm 3,2 km/h (1 Bft) E-SE 112 0 min 0 W/m 15,9 C 19,6 C 3,2 km/h (1 Bft)
15/08/2012 03:40 19,4 C 79 % 1006,2 hPa 0,0 mm 1,1 km/h (1 Bft) E 90 0 min 0 W/m 15,7 C 19,4 C 1,1 km/h (1 Bft)
15/08/2012 03:50 19,3 C 79 % 1006,0 hPa 0,0 mm 4,3 km/h (1 Bft) E 90 0 min 0 W/m 15,6 C 19,3 C 10,1 km/h (2 Bft)
15/08/2012 04:00 19,3 C 79 % 1005,9 hPa 0,0 mm 0,7 km/h (0 Bft) SE 135 0 min 0 W/m 15,6 C 19,3 C 4,3 km/h (1 Bft)
15/08/2012 04:10 19,2 C 79 % 1005,8 hPa 0,0 mm 3,6 km/h (1 Bft) E 90 0 min 0 W/m 15,5 C 19,2 C 6,5 km/h (2 Bft)
15/08/2012 04:20 19,1 C 79 % 1005,8 hPa 0,0 mm 1,1 km/h (1 Bft) E-SE 112 0 min 0 W/m 15,4 C 19,1 C 6,1 km/h (2 Bft)
15/08/2012 04:30 18,9 C 80 % 1005,6 hPa 0,0 mm 0,4 km/h (0 Bft) E-SE 112 0 min 0 W/m 15,4 C 18,9 C 3,2 km/h (1 Bft)
15/08/2012 04:40 18,8 C 80 % 1005,5 hPa 0,0 mm 2,5 km/h (1 Bft) E 90 0 min 0 W/m 15,3 C 18,8 C 6,5 km/h (2 Bft)
15/08/2012 04:50 18,8 C 79 % 1005,4 hPa 0,0 mm 3,2 km/h (1 Bft) SE 135 0 min 0 W/m 15,1 C 18,8 C 5,8 km/h (2 Bft)
15/08/2012 05:00 18,9 C 77 % 1005,2 hPa 0,0 mm 0,4 km/h (0 Bft) SE 135 0 min 0 W/m 14,8 C 18,9 C 0,4 km/h (0 Bft)
15/08/2012 05:10 19,3 C 73 % 1005,0 hPa 0,0 mm 4,0 km/h (1 Bft) S-SE 157 0 min 0 W/m 14,3 C 19,3 C 4,0 km/h (1 Bft)
15/08/2012 05:20 19,8 C 71 % 1005,1 hPa 0,0 mm 0,4 km/h (0 Bft) SE 135 0 min 0 W/m 14,4 C 19,8 C 0,4 km/h (0 Bft)
15/08/2012 05:30 20,0 C 69 % 1005,0 hPa 0,0 mm 0,0 km/h (0 Bft) S-SE 157 0 min 0 W/m 14,1 C 20,0 C 0,0 km/h (0 Bft)
15/08/2012 05:40 20,4 C 67 % 1004,8 hPa 0,0 mm 1,1 km/h (1 Bft) SE 135 0 min 0 W/m 14,1 C 20,4 C 3,6 km/h (1 Bft)
15/08/2012 05:50 20,8 C 65 % 1004,7 hPa 0,0 mm 4,7 km/h (1 Bft) E-SE 112 0 min 0 W/m 14,0 C 20,8 C 7,2 km/h (2 Bft)
15/08/2012 06:00 21,3 C 63 % 1004,6 hPa 0,0 mm 1,8 km/h (1 Bft) SO 225 0 min 0 W/m 14,0 C 21,3 C 3,2 km/h (1 Bft)
15/08/2012 06:10 21,8 C 61 % 1004,5 hPa 0,0 mm 7,6 km/h (2 Bft) S-SE 157 0 min 0 W/m 13,9 C 21,8 C 14,0 km/h (3 Bft)
15/08/2012 06:20 22,2 C 59 % 1004,4 hPa 0,0 mm 12,2 km/h (2 Bft) S 180 0 min 0 W/m 13,8 C 22,2 C 15,1 km/h (3 Bft)
15/08/2012 06:30 22,5 C 58 % 1004,4 hPa 0,0 mm 7,9 km/h (2 Bft) S-SE 157 0 min 0 W/m 13,8 C 22,5 C 9,0 km/h (2 Bft)
15/08/2012 06:40 22,8 C 57 % 1004,6 hPa 0,0 mm 6,1 km/h (2 Bft) S 180 0 min 0 W/m 13,8 C 22,8 C 7,9 km/h (2 Bft)
15/08/2012 06:50 22,8 C 56 % 1004,7 hPa 0,0 mm 15,8 km/h (3 Bft) S 180 0 min 0 W/m 13,6 C 22,8 C 20,9 km/h (4 Bft)
15/08/2012 07:00 22,9 C 56 % 1004,7 hPa 0,0 mm 8,6 km/h (2 Bft) E-SE 112 0 min 0 W/m 13,6 C 22,9 C 12,2 km/h (2 Bft)
15/08/2012 07:10 22,9 C 56 % 1004,9 hPa 0,0 mm 14,8 km/h (3 Bft) S 180 0 min 0 W/m 13,6 C 22,9 C 25,9 km/h (4 Bft)
15/08/2012 07:20 23,1 C 56 % 1005,0 hPa 0,0 mm 10,4 km/h (2 Bft) SO 225 0 min 0 W/m 13,8 C 23,1 C 16,2 km/h (3 Bft)
15/08/2012 07:30 23,1 C 55 % 1005,1 hPa 0,0 mm 16,9 km/h (3 Bft) S 180 0 min 0 W/m 13,6 C 23,1 C 16,9 km/h (3 Bft)
15/08/2012 07:40 23,2 C 56 % 1005,1 hPa 0,0 mm 14,8 km/h (3 Bft) S-SE 157 0 min 0 W/m 13,9 C 23,2 C 21,2 km/h (4 Bft)
15/08/2012 07:50 23,2 C 56 % 1005,5 hPa 0,0 mm 9,0 km/h (2 Bft) S-SO 202 0 min 0 W/m 13,9 C 23,2 C 17,3 km/h (3 Bft)
15/08/2012 08:00 23,3 C 56 % 1005,5 hPa 0,0 mm 7,2 km/h (2 Bft) S-SE 157 0 min 0 W/m 14,0 C 23,3 C 10,4 km/h (2 Bft)
15/08/2012 08:10 23,4 C 57 % 1005,8 hPa 0,0 mm 8,3 km/h (2 Bft) SO 225 0 min 0 W/m 14,4 C 23,4 C 9,7 km/h (2 Bft)
15/08/2012 08:20 23,4 C 56 % 1006,0 hPa 0,0 mm 4,7 km/h (1 Bft) S 180 0 min 0 W/m 14,1 C 23,4 C 4,7 km/h (1 Bft)
15/08/2012 08:30 23,5 C 57 % 1006,1 hPa 0,0 mm 12,2 km/h (2 Bft) O-SO 247 0 min 0 W/m 14,5 C 23,5 C 19,8 km/h (3 Bft)
15/08/2012 08:40 23,8 C 57 % 1006,3 hPa 0,0 mm 8,3 km/h (2 Bft) S-SO 202 0 min 0 W/m 14,8 C 23,8 C 13,0 km/h (3 Bft)
15/08/2012 08:50 23,8 C 58 % 1006,5 hPa 0,0 mm 3,2 km/h (1 Bft) SE 135 0 min 0 W/m 15,0 C 23,8 C 6,5 km/h (2 Bft)
15/08/2012 09:00 23,6 C 58 % 1006,6 hPa 0,0 mm 4,7 km/h (1 Bft) S-SO 202 0 min 0 W/m 14,8 C 23,6 C 9,0 km/h (2 Bft)
15/08/2012 09:10 23,8 C 59 % 1006,6 hPa 0,0 mm 6,8 km/h (2 Bft) SO 225 0 min 0 W/m 15,3 C 23,8 C 10,1 km/h (2 Bft)
15/08/2012 09:20 24,4 C 58 % 1006,7 hPa 0,0 mm 6,5 km/h (2 Bft) S-SE 157 0 min 0 W/m 15,6 C 24,4 C 11,5 km/h (2 Bft)
15/08/2012 09:30 24,8 C 58 % 1006,9 hPa 0,0 mm 8,3 km/h (2 Bft) O-SO 247 0 min 0 W/m 16,0 C 24,8 C 9,7 km/h (2 Bft)
15/08/2012 09:40 25,0 C 58 % 1006,9 hPa 0,0 mm 10,4 km/h (2 Bft) S 180 0 min 0 W/m 16,1 C 25,0 C 14,8 km/h (3 Bft)
15/08/2012 09:50 25,2 C 59 % 1006,8 hPa 0,0 mm 10,1 km/h (2 Bft) S 180 0 min 0 W/m 16,6 C 25,2 C 10,1 km/h (2 Bft)
15/08/2012 10:00 25,9 C 57 % 1006,8 hPa 0,0 mm 7,9 km/h (2 Bft) S 180 0 min 0 W/m 16,7 C 25,9 C 15,8 km/h (3 Bft)
15/08/2012 10:10 26,4 C 57 % 1006,9 hPa 0,0 mm 8,3 km/h (2 Bft) SO 225 0 min 0 W/m 17,2 C 26,4 C 13,7 km/h (3 Bft)
15/08/2012 10:20 27,2 C 55 % 1007,1 hPa 0,0 mm 7,6 km/h (2 Bft) SO 225 0 min 0 W/m 17,4 C 27,2 C 12,2 km/h (2 Bft)
15/08/2012 10:30 27,1 C 55 % 1007,3 hPa 0,0 mm 7,6 km/h (2 Bft) S 180 0 min 0 W/m 17,3 C 27,1 C 13,3 km/h (3 Bft)
15/08/2012 10:40 26,8 C 56 % 1008,0 hPa 0,0 mm 6,1 km/h (2 Bft) O-SO 247 0 min 0 W/m 17,3 C 26,8 C 6,1 km/h (2 Bft)
15/08/2012 10:50 26,4 C 55 % 1008,1 hPa 0,0 mm 16,2 km/h (3 Bft) SO 225 0 min 0 W/m 16,6 C 26,4 C 30,6 km/h (5 Bft)
15/08/2012 11:00 25,9 C 56 % 1008,2 hPa 0,0 mm 9,0 km/h (2 Bft) S-SO 202 0 min 0 W/m 16,4 C 25,9 C 15,5 km/h (3 Bft)
15/08/2012 11:10 26,1 C 57 % 1008,2 hPa 0,0 mm 11,5 km/h (2 Bft) SO 225 0 min 0 W/m 16,9 C 26,1 C 22,0 km/h (4 Bft)
15/08/2012 11:20 26,3 C 57 % 1008,6 hPa 0,0 mm 8,6 km/h (2 Bft) S-SO 202 0 min 0 W/m 17,1 C 26,3 C 8,6 km/h (2 Bft)
15/08/2012 11:30 26,9 C 56 % 1008,9 hPa 0,0 mm 10,4 km/h (2 Bft) O-SO 247 0 min 0 W/m 17,4 C 26,9 C 19,1 km/h (3 Bft)
15/08/2012 11:40 27,3 C 55 % 1009,0 hPa 0,0 mm 11,9 km/h (2 Bft) S-SO 202 0 min 0 W/m 17,4 C 27,3 C 11,9 km/h (2 Bft)
15/08/2012 11:50 27,1 C 56 % 1009,2 hPa 0,0 mm 6,5 km/h (2 Bft) SO 225 0 min 0 W/m 17,5 C 27,1 C 6,5 km/h (2 Bft)
15/08/2012 12:00 26,6 C 57 % 1009,4 hPa 0,0 mm 7,6 km/h (2 Bft) O 270 0 min 0 W/m 17,4 C 26,6 C 21,6 km/h (4 Bft)
15/08/2012 12:10 26,5 C 56 % 1009,5 hPa 0,0 mm 8,3 km/h (2 Bft) SO 225 0 min 0 W/m 17,0 C 26,5 C 15,1 km/h (3 Bft)
15/08/2012 12:20 26,8 C 54 % 1009,5 hPa 0,0 mm 6,8 km/h (2 Bft) SO 225 0 min 0 W/m 16,7 C 26,8 C 10,1 km/h (2 Bft)
15/08/2012 12:30 27,4 C 53 % 1009,6 hPa 0,0 mm 6,5 km/h (2 Bft) O-SO 247 0 min 0 W/m 17,0 C 27,4 C 8,6 km/h (2 Bft)
15/08/2012 12:40 27,4 C 51 % 1009,8 hPa 0,0 mm 9,7 km/h (2 Bft) SO 225 0 min 0 W/m 16,3 C 27,4 C 19,1 km/h (3 Bft)
15/08/2012 12:50 27,4 C 48 % 1010,0 hPa 0,0 mm 3,6 km/h (1 Bft) O-SO 247 0 min 0 W/m 15,4 C 27,4 C 7,2 km/h (2 Bft)
15/08/2012 13:00 27,1 C 45 % 1010,5 hPa 0,0 mm 10,1 km/h (2 Bft) O 270 0 min 0 W/m 14,1 C 27,1 C 15,8 km/h (3 Bft)
15/08/2012 13:10 26,9 C 47 % 1010,7 hPa 0,0 mm 9,7 km/h (2 Bft) O-SO 247 0 min 0 W/m 14,6 C 26,9 C 16,9 km/h (3 Bft)
15/08/2012 13:20 26,6 C 49 % 1011,0 hPa 0,0 mm 4,7 km/h (1 Bft) S-SO 202 0 min 0 W/m 15,0 C 26,6 C 14,0 km/h (3 Bft)
15/08/2012 13:30 26,3 C 47 % 1011,2 hPa 0,0 mm 6,8 km/h (2 Bft) O 270 0 min 0 W/m 14,1 C 26,3 C 12,2 km/h (2 Bft)
15/08/2012 13:40 25,8 C 50 % 1011,5 hPa 0,0 mm 4,7 km/h (1 Bft) O 270 0 min 0 W/m 14,6 C 25,8 C 10,1 km/h (2 Bft)
15/08/2012 13:50 25,3 C 53 % 1011,6 hPa 0,0 mm 14,0 km/h (3 Bft) S-SO 202 0 min 0 W/m 15,0 C 25,3 C 24,8 km/h (4 Bft)
15/08/2012 14:00 24,8 C 54 % 1011,6 hPa 0,0 mm 5,4 km/h (2 Bft) SO 225 0 min 0 W/m 14,8 C 24,8 C 10,1 km/h (2 Bft)
15/08/2012 14:10 24,3 C 54 % 1011,6 hPa 0,0 mm 7,9 km/h (2 Bft) O 270 0 min 0 W/m 14,4 C 24,3 C 8,3 km/h (2 Bft)
15/08/2012 14:20 24,4 C 54 % 1011,7 hPa 0,0 mm 6,1 km/h (2 Bft) O 270 0 min 0 W/m 14,5 C 24,4 C 11,5 km/h (2 Bft)
15/08/2012 14:30 24,4 C 53 % 1011,9 hPa 0,0 mm 4,3 km/h (1 Bft) O-SO 247 0 min 0 W/m 14,2 C 24,4 C 7,2 km/h (2 Bft)
15/08/2012 14:40 24,4 C 54 % 1012,3 hPa 0,0 mm 5,0 km/h (1 Bft) O-SO 247 0 min 0 W/m 14,5 C 24,4 C 8,3 km/h (2 Bft)
15/08/2012 14:50 24,5 C 55 % 1012,1 hPa 0,0 mm 5,0 km/h (1 Bft) O-SO 247 0 min 0 W/m 14,9 C 24,5 C 10,8 km/h (2 Bft)
15/08/2012 15:00 24,7 C 56 % 1012,4 hPa 0,0 mm 2,9 km/h (1 Bft) O-SO 247 0 min 0 W/m 15,3 C 24,7 C 12,2 km/h (2 Bft)
15/08/2012 15:10 24,9 C 55 % 1012,4 hPa 0,0 mm 9,0 km/h (2 Bft) SO 225 0 min 0 W/m 15,2 C 24,9 C 9,7 km/h (2 Bft)
15/08/2012 15:20 24,8 C 56 % 1012,5 hPa 0,0 mm 5,8 km/h (2 Bft) O 270 0 min 0 W/m 15,4 C 24,8 C 8,3 km/h (2 Bft)
15/08/2012 15:30 24,8 C 56 % 1012,5 hPa 0,0 mm 7,9 km/h (2 Bft) O-SO 247 0 min 0 W/m 15,4 C 24,8 C 8,3 km/h (2 Bft)
15/08/2012 15:40 24,6 C 57 % 1012,6 hPa 0,0 mm 4,3 km/h (1 Bft) O-SO 247 0 min 0 W/m 15,5 C 24,6 C 10,1 km/h (2 Bft)
15/08/2012 15:50 24,6 C 58 % 1012,8 hPa 0,0 mm 4,0 km/h (1 Bft) O-SO 247 0 min 0 W/m 15,8 C 24,6 C 9,0 km/h (2 Bft)
15/08/2012 16:00 24,2 C 59 % 1012,9 hPa 0,0 mm 8,3 km/h (2 Bft) O 270 0 min 0 W/m 15,7 C 24,2 C 15,1 km/h (3 Bft)
15/08/2012 16:10 23,7 C 56 % 1013,1 hPa 0,0 mm 7,2 km/h (2 Bft) SO 225 0 min 0 W/m 14,4 C 23,7 C 11,5 km/h (2 Bft)
15/08/2012 16:20 23,3 C 51 % 1013,6 hPa 0,0 mm 5,0 km/h (1 Bft) SO 225 0 min 0 W/m 12,6 C 23,3 C 7,6 km/h (2 Bft)
15/08/2012 16:30 22,8 C 53 % 1013,9 hPa 0,0 mm 6,8 km/h (2 Bft) O 270 0 min 0 W/m 12,7 C 22,8 C 11,5 km/h (2 Bft)
15/08/2012 16:40 21,9 C 53 % 1014,2 hPa 0,0 mm 7,9 km/h (2 Bft) O 270 0 min 0 W/m 11,9 C 21,9 C 16,6 km/h (3 Bft)
15/08/2012 16:50 20,9 C 56 % 1014,5 hPa 0,0 mm 4,7 km/h (1 Bft) SO 225 0 min 0 W/m 11,8 C 20,9 C 10,1 km/h (2 Bft)
15/08/2012 17:00 19,8 C 60 % 1014,4 hPa 0,0 mm 1,4 km/h (1 Bft) SO 225 0 min 0 W/m 11,8 C 19,8 C 3,2 km/h (1 Bft)
15/08/2012 17:10 19,1 C 64 % 1014,0 hPa 0,0 mm 1,1 km/h (1 Bft) S-SO 202 0 min 0 W/m 12,1 C 19,1 C 4,3 km/h (1 Bft)
15/08/2012 17:20 18,7 C 66 % 1014,2 hPa 0,0 mm 4,3 km/h (1 Bft) S-SO 202 0 min 0 W/m 12,2 C 18,7 C 7,9 km/h (2 Bft)
15/08/2012 17:30 18,6 C 67 % 1013,6 hPa 0,0 mm 0,7 km/h (0 Bft) O 270 0 min 0 W/m 12,3 C 18,6 C 0,7 km/h (0 Bft)
15/08/2012 17:40 18,7 C 67 % 1013,6 hPa 0,0 mm 0,0 km/h (0 Bft) SO 225 0 min 0 W/m 12,4 C 18,7 C 0,0 km/h (0 Bft)
15/08/2012 17:50 18,9 C 66 % 1013,9 hPa 0,0 mm 4,0 km/h (1 Bft) S-SO 202 0 min 0 W/m 12,4 C 18,9 C 7,9 km/h (2 Bft)
15/08/2012 18:00 19,1 C 67 % 1014,4 hPa 0,0 mm 1,8 km/h (1 Bft) S 180 0 min 0 W/m 12,8 C 19,1 C 3,6 km/h (1 Bft)
15/08/2012 18:10 19,4 C 66 % 1014,2 hPa 0,0 mm 1,4 km/h (1 Bft) SO 225 0 min 0 W/m 12,9 C 19,4 C 1,4 km/h (1 Bft)
15/08/2012 18:20 19,8 C 66 % 1014,4 hPa 0,0 mm 1,8 km/h (1 Bft) O-SO 247 0 min 0 W/m 13,3 C 19,8 C 4,0 km/h (1 Bft)
15/08/2012 18:30 20,3 C 66 % 1014,3 hPa 0,0 mm 2,2 km/h (1 Bft) S-SO 202 0 min 0 W/m 13,7 C 20,3 C 2,2 km/h (1 Bft)
15/08/2012 18:40 20,8 C 64 % 1014,3 hPa 0,0 mm 5,8 km/h (2 Bft) S 180 0 min 0 W/m 13,7 C 20,8 C 7,2 km/h (2 Bft)
15/08/2012 18:50 20,9 C 63 % 1014,2 hPa 0,0 mm 4,0 km/h (1 Bft) S-SO 202 0 min 0 W/m 13,6 C 20,9 C 6,5 km/h (2 Bft)
15/08/2012 19:00 20,9 C 64 % 1014,2 hPa 0,0 mm 1,4 km/h (1 Bft) O-SO 247 0 min 0 W/m 13,8 C 20,9 C 4,3 km/h (1 Bft)
15/08/2012 19:10 20,8 C 64 % 1014,3 hPa 0,0 mm 4,0 km/h (1 Bft) SO 225 0 min 0 W/m 13,7 C 20,8 C 6,5 km/h (2 Bft)
15/08/2012 19:20 20,8 C 65 % 1014,2 hPa 0,0 mm 3,6 km/h (1 Bft) S-SO 202 0 min 0 W/m 14,0 C 20,8 C 8,3 km/h (2 Bft)
15/08/2012 19:30 20,9 C 65 % 1014,1 hPa 0,0 mm 1,4 km/h (1 Bft) SO 225 0 min 0 W/m 14,1 C 20,9 C 4,3 km/h (1 Bft)
15/08/2012 19:40 21,1 C 64 % 1014,3 hPa 0,0 mm 1,8 km/h (1 Bft) S 180 0 min 0 W/m 14,0 C 21,1 C 4,0 km/h (1 Bft)
15/08/2012 19:50 21,1 C 65 % 1014,5 hPa 0,0 mm 1,1 km/h (1 Bft) SO 225 0 min 0 W/m 14,3 C 21,1 C 4,3 km/h (1 Bft)
15/08/2012 20:00 20,9 C 65 % 1014,6 hPa 0,0 mm 3,6 km/h (1 Bft) S 180 0 min 0 W/m 14,1 C 20,9 C 6,8 km/h (2 Bft)
15/08/2012 20:10 20,6 C 66 % 1014,5 hPa 0,0 mm 1,4 km/h (1 Bft) S-SO 202 0 min 0 W/m 14,0 C 20,6 C 4,3 km/h (1 Bft)
15/08/2012 20:20 20,4 C 67 % 1014,7 hPa 0,0 mm 1,4 km/h (1 Bft) S 180 0 min 0 W/m 14,1 C 20,4 C 7,2 km/h (2 Bft)
15/08/2012 20:30 20,2 C 68 % 1014,9 hPa 0,0 mm 2,2 km/h (1 Bft) S-SO 202 0 min 0 W/m 14,1 C 20,2 C 6,5 km/h (2 Bft)
15/08/2012 20:40 19,9 C 69 % 1015,0 hPa 0,0 mm 1,8 km/h (1 Bft) S-SO 202 0 min 0 W/m 14,0 C 19,9 C 4,0 km/h (1 Bft)
15/08/2012 20:50 19,7 C 69 % 1015,1 hPa 0,0 mm 5,4 km/h (2 Bft) S-SO 202 0 min 0 W/m 13,8 C 19,7 C 11,9 km/h (2 Bft)
15/08/2012 21:00 19,3 C 70 % 1015,1 hPa 0,0 mm 1,4 km/h (1 Bft) S-SE 157 0 min 0 W/m 13,7 C 19,3 C 4,3 km/h (1 Bft)
15/08/2012 21:10 19,1 C 71 % 1015,3 hPa 0,0 mm 2,5 km/h (1 Bft) SO 225 0 min 0 W/m 13,7 C 19,1 C 7,2 km/h (2 Bft)
15/08/2012 21:20 18,6 C 72 % 1015,5 hPa 0,0 mm 1,1 km/h (1 Bft) S-SO 202 0 min 0 W/m 13,4 C 18,6 C 4,0 km/h (1 Bft)
15/08/2012 21:30 18,3 C 73 % 1015,5 hPa 0,0 mm 3,2 km/h (1 Bft) S 180 0 min 0 W/m 13,4 C 18,3 C 4,0 km/h (1 Bft)
15/08/2012 21:40 17,8 C 74 % 1015,8 hPa 0,0 mm 1,8 km/h (1 Bft) S-SO 202 0 min 0 W/m 13,1 C 17,8 C 4,0 km/h (1 Bft)
15/08/2012 21:50 17,5 C 75 % 1015,8 hPa 0,0 mm 0,0 km/h (0 Bft) S-SO 202 0 min 0 W/m 13,0 C 17,5 C 0,0 km/h (0 Bft)
15/08/2012 22:00 17,1 C 75 % 1015,9 hPa 0,0 mm 2,2 km/h (1 Bft) S-SE 157 0 min 0 W/m 12,6 C 17,1 C 4,0 km/h (1 Bft)
15/08/2012 22:10 16,8 C 77 % 1016,1 hPa 0,0 mm 0,0 km/h (0 Bft) S-SO 202 0 min 0 W/m 12,7 C 16,8 C 0,0 km/h (0 Bft)
15/08/2012 22:20 16,4 C 77 % 1016,2 hPa 0,0 mm 1,1 km/h (1 Bft) S 180 0 min 0 W/m 12,4 C 16,4 C 1,1 km/h (1 Bft)
15/08/2012 22:30 16,0 C 79 % 1016,4 hPa 0,0 mm 0,7 km/h (0 Bft) S 180 0 min 0 W/m 12,4 C 16,0 C 3,2 km/h (1 Bft)
15/08/2012 22:40 15,7 C 79 % 1016,5 hPa 0,0 mm 0,0 km/h (0 Bft) S-SE 157 0 min 0 W/m 12,1 C 15,7 C 2,9 km/h (1 Bft)
15/08/2012 22:50 15,4 C 79 % 1016,6 hPa 0,0 mm 0,0 km/h (0 Bft) S-SO 202 0 min 0 W/m 11,8 C 15,4 C 0,0 km/h (0 Bft)
15/08/2012 23:00 15,1 C 79 % 1016,8 hPa 0,0 mm 0,0 km/h (0 Bft) S-SO 202 0 min 0 W/m 11,5 C 15,1 C 0,0 km/h (0 Bft)
15/08/2012 23:10 14,8 C 80 % 1016,9 hPa 0,0 mm 0,0 km/h (0 Bft) S-SO 202 0 min 0 W/m 11,4 C 14,8 C 0,0 km/h (0 Bft)
15/08/2012 23:20 14,5 C 82 % 1017,0 hPa 0,0 mm 0,0 km/h (0 Bft) S-SO 202 0 min 0 W/m 11,5 C 14,5 C 0,0 km/h (0 Bft)
15/08/2012 23:30 14,3 C 82 % 1017,1 hPa 0,0 mm 0,0 km/h (0 Bft) S-SO 202 0 min 0 W/m 11,3 C 14,3 C 0,0 km/h (0 Bft)
15/08/2012 23:40 14,1 C 83 % 1017,1 hPa 0,0 mm 0,0 km/h (0 Bft) S-SO 202 0 min 0 W/m 11,3 C 14,1 C 0,0 km/h (0 Bft)
_ Min-Heure 23:40 13:00 06:30 - 23:40 - - - - 23:40 23:40 23:40
Minimum _ 14,1 C 45 % 1004,4 hPa - 0,0 km/h (0 Bft) - - - - 11,3 C 14,1 C 0,0 km/h (0 Bft)
_ Max-Heure 12:50 23:40 23:40 23:40 07:30 - - 23:40 23:40 11:50 12:50 10:50
Maximum _ 27,4 C 83 % 1017,1 hPa 0,0 mm 16,9 km/h
S (3 Bft)
- - 0 min 0 W/m 17,5 C 27,4 C 30,6 km/h
SO (5 Bft)
Moyenne _ 21,9 C 64 % 1010,1 hPa #0,0 mm 4,8 km/h (1 Bft) S-SO - #0 min. 0 W/m 14,6 C 21,9 C 8,2 km/h (2 Bft)
Saint Bonnet de Bellac- Haute Vienne - France